Hourly Data Report for June 15, 2021

WESTERN HEAD
NOVA SCOTIA
Current Station Operator: ECCC - MSC

43°59'24.070" N
64°39'51.008" W
10.10 m
8206240
71411
WWE

Download Data

Hourly Data (June 2021)
Hourly Data Report for June 15, 2021
TIME
LST
Temp Definition
°C
Dew Point Definition
°C
Rel Hum Definition
%
Precip. Amount Definition
mm

Wind Dir Definition
10's deg

Wind Spd Definition
km/h
Visibility Definition
km
Stn Press Definition
kPa
Hmdx Definition


Wind Chill Definition


Weather Definition


00:00 12.8 LegendMM LegendMM 0.0 5 6   101.48     LegendNANA
01:00 12.9 LegendMM LegendMM 0.0 9 3   101.43     LegendNANA
02:00 12.6 LegendMM LegendMM 0.0 10 2   101.36     LegendNANA
03:00 12.5 LegendMM LegendMM 0.0 17 5   101.27     LegendNANA
04:00 12.4 LegendMM LegendMM 0.0 13 15   101.22     LegendNANA
05:00 12.2 LegendMM LegendMM 0.0 20 2   101.20     LegendNANA
06:00 12.4 LegendMM LegendMM 0.0 13 10   101.18     LegendNANA
07:00 12.0 LegendMM LegendMM 0.0 13 3   101.13     LegendNANA
08:00 13.6 LegendMM LegendMM 0.0 11 7   101.12     LegendNANA
09:00 14.4 LegendMM LegendMM 0.0 12 8   101.11     LegendNANA
10:00 15.1 LegendMM LegendMM 0.0 12 13   101.08     LegendNANA
11:00 16.6 13.7 83 0.0 10 7   101.02     LegendNANA
12:00 14.3 14.3 100 0.0 16 4   100.98     LegendNANA
13:00 14.5 14.5 100 0.0 14 9   100.89     LegendNANA
14:00 14.1 14.1 100 0.0 17 10   100.83     LegendNANA
15:00 14.6 14.6 100 0.0 14 21   100.77     LegendNANA
16:00 13.8 13.8 100 0.0 16 12   100.77     LegendNANA
17:00 13.0 LegendMM LegendMM 0.0 22 6   100.74     LegendNANA
18:00 12.8 LegendMM LegendMM 0.0 18 4   100.70     LegendNANA
19:00 13.3 LegendMM LegendMM 0.0 23 10   100.71     LegendNANA
20:00 13.1 LegendMM LegendMM 0.0 21 7   100.68     LegendNANA
21:00 12.6 LegendMM LegendMM 0.0 19 6   100.62     LegendNANA
22:00 12.7 LegendMM LegendMM 0.0 21 6   100.59     LegendNANA
23:00 12.1 LegendMM LegendMM 0.0 16 8   100.52     LegendNANA

Notes on Data Quality.

Legend

  • E = Estimated
  • M = Missing
  • NA = Not Available*
  • [empty] = Indicates an unobserved value
Date modified: